This is the latest recevied weather packets stored in our database for station/object HB9TJM-8. If no packets are shown the sender has not sent any weather packets the latest 10 day(s).
| Time | Temp. | Humidity | Pressure | Rain* | Wind** | Luminosity | Snow |
|---|---|---|---|---|---|---|---|
| 1777734669 | 20.56° C | 43% | 1019.7 hPa | 0 mm | - | 260 W/m² | - |
| 1777734361 | 20.56° C | 44% | 1019.4 hPa | 0 mm | - | 488 W/m² | - |
| 1777734361 | 20.56° C | 44% | 1019.4 hPa | 0 mm | - | 488 W/m² | - |
| 1777734054 | 20.56° C | 44% | 1019.6 hPa | 0 mm | - | 482 W/m² | - |
| 1777734054 | 20.56° C | 44% | 1019.6 hPa | 0 mm | - | 482 W/m² | - |
| 1777733746 | 20.56° C | 44% | 1019.7 hPa | 0 mm | - | 486 W/m² | - |
| 1777733439 | 20.56° C | 46% | 1020.3 hPa | 0 mm | - | 481 W/m² | - |
| 1777733439 | 20.56° C | 46% | 1020.3 hPa | 0 mm | - | 481 W/m² | - |
| 1777733131 | 20.56° C | 47% | 1019.8 hPa | 0 mm | - | 428 W/m² | - |
| 1777733131 | 20.56° C | 47% | 1019.8 hPa | 0 mm | - | 428 W/m² | - |
| 1777732823 | 20.56° C | 41% | 1020.5 hPa | 0 mm | - | 458 W/m² | - |
| 1777732516 | 21.11° C | 41% | 1020 hPa | 0 mm | - | 477 W/m² | - |
| 1777732515 | 21.11° C | 41% | 1020 hPa | 0 mm | - | 477 W/m² | - |
| 1777732208 | 21.67° C | 39% | 1020.1 hPa | 0 mm | - | 538 W/m² | - |
| 1777732208 | 21.67° C | 39% | 1020.1 hPa | 0 mm | - | 538 W/m² | - |
| 1777731901 | 21.11° C | 33% | 1020.3 hPa | 0 mm | - | 561 W/m² | - |
| 1777731286 | 21.11° C | 30% | 1020 hPa | 0 mm | - | 488 W/m² | - |
| 1777730670 | 20.56° C | 45% | 1020.6 hPa | 0 mm | - | 488 W/m² | - |
| 1777730670 | 20.56° C | 45% | 1020.6 hPa | 0 mm | - | 488 W/m² | - |
| 1777730363 | 20.56° C | 49% | 1020 hPa | 0 mm | - | 543 W/m² | - |
| 1777730363 | 20.56° C | 49% | 1020 hPa | 0 mm | - | 543 W/m² | - |
| 1777730055 | 20.56° C | 52% | 1020.5 hPa | 0 mm | - | 535 W/m² | - |
| 1777730055 | 20.56° C | 52% | 1020.5 hPa | 0 mm | - | 535 W/m² | - |
| 1777729441 | 20.56° C | 52% | 1020.7 hPa | 0 mm | - | 608 W/m² | - |
| 1777729132 | 20.56° C | 53% | 1021.1 hPa | 0 mm | - | 629 W/m² | - |
* Rain latest hour (hover to see other rain measurements)
** Current wind speed in m/s (hover to see current wind gust speed)